User: anonymous   Login
Location: Monroe
(41.9160°N, 83.3980°W)
Time: 23:10:04
(UTC-04:00)
Language:

ISS - Orbit

View from above orbital plane
View from above orbital plane
View from above satellite
View from above satellite

Ground track
Ground track

The orbit data is extracted from the following two-line orbital elements,

1 25544U 98067A   15124.72650443  .00011364  00000-0  16473-3 0  9993
2 25544 051.6470 301.0857 0005159 298.4066 173.2489 15.56357009941272
Epoch (UTC): 04 May 2015 17:26:09
Eccentricity: 0.0005159
inclination: 51.6470°
perigee height: 395 km
apogee height: 402 km
right ascension of ascending node: 301.0857°
argument of perigee: 298.4066°
revolutions per day: 15.56357009
mean anomaly at epoch: 173.2489°
orbit number at epoch: 94127

The dashed part of the orbit path shows where the satellite is in the earth's shadow,  

DLR